GW0843 Weather Reports


time (UTC)temp
C
wind
direction
speed
KPH
gust
KPH
rain 1hr
cm
rain 24hr
cm
rain mn
cm
humidity
%
barometer
mb
20260901081507 12 202 0.0 0.0 0.00 0.00 0.00 92 1026.2
20260901080507 12 202 0.0 0.0 0.00 0.00 0.00 91 1026.3
20260901075503 12 248 1.6 1.6 0.00 0.00 0.00 90 1026.0
20260901074502 13 208 1.6 1.6 0.00 0.00 0.00 89 1026.2
20260901073500 13 212 1.6 1.6 0.00 0.00 0.00 88 1026.5
20260901072455 13 313 3.2 3.2 0.00 0.00 0.00 88 1026.3
20260901071455 12 291 3.2 3.2 0.00 0.00 0.00 89 1026.3
20260901070450 12 263 4.8 4.8 0.00 0.00 0.00 93 1026.3
20260901065445 12 266 3.2 3.2 0.00 0.00 0.00 93 1026.3
20260901064442 12 262 3.2 3.2 0.00 0.00 0.00 92 1026.2
20260901063441 12 269 4.8 4.8 0.00 0.00 0.00 92 1026.3
20260901062438 12 276 6.4 8.0 0.00 0.00 0.00 92 1026.3
20260901061436 12 252 3.2 3.2 0.00 0.00 0.00 89 1026.5
20260901060432 12 244 3.2 3.2 0.00 0.00 0.00 92 1026.1
20260901055428 12 211 0.0 0.0 0.00 0.18 0.18 95 1026.3
20260901054427 12 262 3.2 3.2 0.00 0.18 0.18 95 1026.3
20260901053424 12 204 1.6 1.6 0.00 0.18 0.18 95 1026.2
20260901052420 12 212 1.6 1.6 0.00 0.18 0.18 95 1026.5
20260901051415 12 218 4.8 4.8 0.00 0.18 0.18 96 1026.6
20260901050411 12 203 1.6 1.6 0.00 0.18 0.18 96 1026.8
20260901045411 12 204 0.0 1.6 0.00 0.18 0.18 95 1027.2
20260901044408 12 215 0.0 0.0 0.18 0.18 0.18 95 1027.2
20260901043406 12 200 0.0 1.6 0.00 0.15 0.15 94 1027.4
20260901042407 13 258 4.8 4.8 0.00 0.13 0.13 92 1027.8
20260901041402 13 203 1.6 3.2 0.00 0.13 0.13 90 1027.6
20260901040401 13 238 3.2 3.2 0.00 0.13 0.13 90 1027.6
20260901035400 13 214 1.6 1.6 0.00 0.13 0.13 88 1027.3
20260901034359 13 205 3.2 3.2 0.00 0.13 0.13 86 1027.4
20260901033400 13 241 1.6 1.6 0.00 0.13 0.13 88 1027.7
20260901032358 13 212 0.0 1.6 0.00 0.13 0.13 93 1027.3
20260901031355 12 267 4.8 4.8 0.00 0.13 0.13 93 1027.8
20260901030350 13 266 3.2 3.2 0.18 0.13 0.13 92 1027.7
20260901025349 13 218 1.6 1.6 0.00 0.10 0.10 87 1027.7
20260901024349 13 257 1.6 1.6 0.13 0.10 0.10 88 1027.9
20260901023349 13 293 8.0 9.7 0.00 0.08 0.08 86 1027.9
20260901022346 13 236 4.8 4.8 0.00 0.08 0.08 86 1027.4
20260901021343 13 264 3.2 3.2 0.00 0.08 0.08 89 1027.4
20260901020338 14 237 4.8 4.8 0.00 0.08 0.08 81 1027.4
20260901015335 15 239 4.8 4.8 0.18 0.08 0.08 83 1027.7
20260901014330 15 200 1.6 1.6 0.00 0.05 0.05 82 1027.4
20260901013326 16 264 1.6 3.2 0.13 0.05 0.05 74 1027.2
20260901012322 17 275 3.2 3.2 0.00 0.03 0.03 68 1027.4
20260901011319 17 304 4.8 8.0 0.00 0.03 0.03 67 1026.7
20260901010319 17 219 0.0 1.6 0.00 0.03 0.03 69 1026.8
20260901005314 17 113 0.0 1.6 0.00 0.03 0.03 73 1027.0
20260901004314 16 208 0.0 0.0 0.00 0.03 0.03 78 1026.6
20260901003309 16 214 1.6 3.2 0.00 0.03 0.03 76 1026.8
20260901002309 16 261 1.6 1.6 0.00 0.03 0.03 78 1026.7
20260901001305 16 145 1.6 1.6 0.00 0.03 0.03 78 1026.3
20260901000303 16 283 3.2 3.2 0.00 0.03 0.03 75 1026.8
20260831235301 16 202 4.8 4.8 0.18 0.03 0.03 77 1026.5
20260831234300 16 268 9.7 11.3 0.00 0.00 0.00 73 1026.6
20260831233257 20 263 9.7 12.9 0.00 0.00 0.00 59 1026.2
20260831232255 22 239 1.6 3.2 0.00 0.00 0.00 46 1026.0
20260831231253 22 53 9.7 14.5 0.00 0.00 0.00 44 1025.6
20260831230248 22 86 4.8 8.0 0.00 0.00 0.00 44 1025.5
20260831225243 22 84 8.0 12.9 0.00 0.00 0.00 43 1025.2
20260831224239 22 60 4.8 9.7 0.00 0.00 0.00 42 1025.4
20260831223236 23 69 12.9 16.1 0.00 0.00 0.00 42 1025.5
20260831222233 23 87 6.4 9.7 0.00 0.00 0.00 41 1025.5
20260831221230 23 71 6.4 11.3 0.00 0.00 0.00 42 1025.6
20260831220226 25 88 1.6 1.6 0.00 0.00 0.00 37 1025.2
20260831215222 23 63 4.8 4.8 0.00 0.00 0.00 37 1025.2
20260831214222 24 55 1.6 1.6 0.00 0.00 0.00 37 1025.4
20260831213219 25 278 4.8 4.8 0.00 0.00 0.00 36 1025.8
20260831212217 25 323 3.2 4.8 0.00 0.00 0.00 37 1026.0
20260831211216 23 341 8.0 9.7 0.00 0.00 0.00 37 1026.0
20260831210213 25 299 4.8 4.8 0.00 0.00 0.00 35 1026.1
20260831205208 23 226 1.6 3.2 0.00 0.00 0.00 38 1026.3
20260831204207 23 290 4.8 8.0 0.00 0.00 0.00 38 1026.3
20260831203207 24 278 8.0 12.9 0.00 0.00 0.00 36 1026.0
20260831202206 25 304 19.3 25.7 0.00 0.00 0.00 34 1026.1
20260831201206 25 268 6.4 8.0 0.00 0.00 0.00 34 1026.7
20260831200202 25 102 1.6 3.2 0.00 0.00 0.00 33 1026.5
20260831195159 25 284 9.7 11.3 0.00 0.00 0.00 33 1026.7
20260831194155 24 125 1.6 1.6 0.00 0.00 0.00 33 1026.7
20260831193150 24 169 6.4 8.0 0.00 0.00 0.00 33 1027.0
20260831192146 25 12 8.0 11.3 0.00 0.00 0.00 32 1027.1
20260831191144 25 312 14.5 17.7 0.00 0.00 0.00 33 1027.3
20260831190144 24 281 6.4 8.0 0.00 0.00 0.00 33 1027.2
20260831185141 24 279 9.7 11.3 0.00 0.00 0.00 33 1027.2
20260831184137 23 289 14.5 17.7 0.00 0.00 0.00 35 1027.3
20260831183136 23 317 8.0 9.7 0.00 0.00 0.00 34 1027.2
20260831182131 24 294 12.9 14.5 0.00 0.00 0.00 35 1027.3
20260831181131 25 248 6.4 9.7 0.00 0.00 0.00 35 1027.4
20260831180127 23 291 8.0 9.7 0.00 0.00 0.00 37 1027.6
20260831175125 24 315 8.0 12.9 0.00 0.00 0.00 36 1027.7
20260831174125 22 23 4.8 8.0 0.00 0.00 0.00 40 1027.8
20260831173120 21 65 11.3 14.5 0.00 0.00 0.00 46 1027.8
20260831172120 21 190 4.8 9.7 0.00 0.00 0.00 47 1028.2
20260831171118 21 98 1.6 3.2 0.00 0.00 0.00 47 1027.8
20260831170117 21 355 8.0 9.7 0.00 0.00 0.00 46 1027.8
20260831165115 20 69 1.6 1.6 0.00 0.00 0.00 47 1027.8
20260831164112 20 87 6.4 8.0 0.00 0.00 0.00 48 1027.8
20260831163108 20 70 4.8 4.8 0.00 0.00 0.00 49 1027.9
20260831162105 19 85 4.8 4.8 0.00 0.00 0.00 50 1027.7
20260831161104 19 79 4.8 4.8 0.00 0.00 0.00 50 1027.8
20260831160059 18 66 3.2 3.2 0.00 0.00 0.00 50 1027.6
20260831155054 18 99 0.0 0.0 0.00 0.00 0.00 51 1027.4
20260831154050 18 90 4.8 8.0 0.00 0.00 0.00 53 1027.6
20260831153047 18 81 3.2 3.2 0.00 0.00 0.00 52 1027.7
20260831152043 17 269 0.0 0.0 0.00 0.00 0.00 54 1027.8
20260831151042 17 56 1.6 1.6 0.00 0.00 0.00 55 1027.3
20260831150040 16 273 3.2 3.2 0.00 0.00 0.00 57 1027.6
20260831145036 16 202 0.0 0.0 0.00 0.00 0.00 58 1027.2
20260831144032 15 202 0.0 0.0 0.00 0.00 0.00 59 1027.7
20260831143028 15 215 1.6 1.6 0.00 0.00 0.00 59 1027.6
20260831142026 15 202 1.6 1.6 0.00 0.00 0.00 59 1027.4
20260831141026 15 203 1.6 1.6 0.00 0.00 0.00 60 1027.6
20260831140026 15 230 3.2 3.2 0.00 0.00 0.00 59 1027.0
20260831135025 14 195 3.2 3.2 0.00 0.00 0.00 60 1027.2
20260831134020 14 84 1.6 3.2 0.00 0.00 0.00 60 1027.0
20260831133016 15 271 1.6 3.2 0.00 0.00 0.00 56 1026.7
20260831132011 15 269 4.8 4.8 0.00 0.00 0.00 55 1026.5
20260831131008 15 262 4.8 4.8 0.00 0.00 0.00 57 1026.8
20260831130002 12 259 4.8 4.8 0.00 0.00 0.00 63 1026.6
20260831124958 12 244 0.0 0.0 0.00 0.00 0.00 69 1026.3
20260831123955 12 265 3.2 3.2 0.00 0.00 0.00 65 1026.6
20260831122955 13 298 4.8 8.0 0.00 0.00 0.00 62 1026.1
20260831121951 13 274 8.0 9.7 0.00 0.00 0.00 64 1026.3
20260831120948 12 268 4.8 4.8 0.00 0.00 0.00 64 1026.2
20260831115943 13 269 4.8 4.8 0.00 0.00 0.00 64 1026.1
20260831114939 13 204 1.6 1.6 0.00 0.00 0.00 62 1026.2
20260831113933 13 218 1.6 1.6 0.00 0.00 0.00 60 1025.8
20260831112928 13 269 3.2 3.2 0.00 0.00 0.00 59 1025.7
20260831111923 15 258 3.2 3.2 0.00 0.00 0.00 57 1026.0
20260831110920 15 296 1.6 3.2 0.00 0.00 0.00 55 1025.8
20260831105919 15 257 4.8 4.8 0.00 0.00 0.00 54 1025.6
20260831104916 16 253 4.8 4.8 0.00 0.00 0.00 54 1025.7
20260831103914 15 281 4.8 4.8 0.00 0.00 0.00 53 1025.5
20260831102909 15 273 4.8 8.0 0.00 0.00 0.00 55 1025.6
20260831101905 12 145 1.6 1.6 0.00 0.00 0.00 64 1025.5
20260831100902 12 287 3.2 4.8 0.00 0.00 0.00 67 1025.4
20260831095857 12 287 0.0 1.6 0.00 0.00 0.00 64 1025.2
20260831094852 11 130 1.6 1.6 0.00 0.00 0.00 65 1025.1
20260831093849 11 153 3.2 3.2 0.00 0.00 0.00 65 1024.7
20260831092847 11 289 4.8 4.8 0.00 0.00 0.00 68 1025.1
20260831091843 12 233 3.2 3.2 0.00 0.00 0.00 65 1025.0
20260831090839 11 201 3.2 3.2 0.00 0.00 0.00 66 1025.1
20260831085838 11 252 0.0 0.0 0.00 0.00 0.00 68 1024.7
20260831084838 12 195 1.6 3.2 0.00 0.00 0.00 64 1025.0
20260831083836 12 218 1.6 3.2 0.00 0.00 0.00 66 1025.0
20260831082836 12 209 0.0 0.0 0.00 0.00 0.00 62 1025.1
20260831081833 13 212 1.6 1.6 0.00 0.00 0.00 61 1024.7